Location: Étouvelles
(49.5207°N, 3.5808°E)
Time: 09:39:18
(UTC+00:00)

CZ-4B DEB - Pass Details

Date: 03 February 2023
Orbit: 839 x 859 km, 99.1° (Epoch: 23 March)

Event Time Altitude Azimuth Distance (km) Brightness Sun altitude
Rises 17:46:52 0° 156° (SSE) 3,382 7.2 -10.4°
Reaches altitude 10° 17:49:13 10° 154° (SSE) 2,452 6.5 -10.8°
Maximum altitude 17:54:38 73° 71° (ENE) 882 4.1 -11.7°
Drops below altitude 10° 18:00:06 10° 348° (NNW) 2,477 6.7 -12.5°
Sets 18:02:29 0° 347° (NNW) 3,419 7.4 -12.9°
